HLJ156 LROP-EPKK

Flight info

Callsign HLJ156
Flight time 1h 9m
Altitude 38000
Route SOKRU DCT LARMU DCT KENIN DCT LENOV
Aircraft A320/M-SDE3FGHIRWY/LB1

Departure

Time 2026-05-07 17:52
Airport Bucharest Henri Coandă International Airport (LROP)

Arrival

Time 2026-05-07 19:02
Airport Kraków John Paul II International Airport (EPKK)
Time Latitude Longitude Altitude Speed Heading
2026-05-07 17:24 44.57256 26.07925 321 ft 0 kts 354°
2026-05-07 17:39 44.57248 26.07926 321 ft 3 kts 354°
2026-05-07 17:39 44.57228 26.07929 318 ft 3 kts 354°
2026-05-07 17:39 44.57211 26.07932 320 ft 3 kts 358°
2026-05-07 17:40 44.57192 26.07930 318 ft 3 kts 27°
2026-05-07 17:40 44.57183 26.07917 319 ft 2 kts 84°
2026-05-07 17:40 44.57181 26.07892 319 ft 1 kts 84°
2026-05-07 17:44 44.57182 26.07911 319 ft 7 kts 84°
2026-05-07 17:45 44.57191 26.08032 320 ft 16 kts 84°
2026-05-07 17:45 44.57204 26.08193 321 ft 18 kts 84°
2026-05-07 17:45 44.57225 26.08355 321 ft 14 kts 79°
2026-05-07 17:45 44.57242 26.08485 319 ft 12 kts 54°
2026-05-07 17:46 44.57314 26.08493 321 ft 10 kts 354°
2026-05-07 17:46 44.57375 26.08484 321 ft 8 kts 354°
2026-05-07 17:46 44.57397 26.08481 319 ft 0 kts 354°
2026-05-07 17:47 44.57402 26.08481 319 ft 3 kts 354°
2026-05-07 17:47 44.57436 26.08476 320 ft 5 kts 354°
2026-05-07 17:47 44.57469 26.08471 321 ft 4 kts 354°
2026-05-07 17:48 44.57492 26.08468 321 ft 3 kts 354°
2026-05-07 17:48 44.57504 26.08466 321 ft 1 kts 354°
2026-05-07 17:48 44.57511 26.08465 321 ft 2 kts 354°
2026-05-07 17:48 44.57520 26.08464 321 ft 0 kts 354°
2026-05-07 17:49 44.57533 26.08462 320 ft 4 kts 354°
2026-05-07 17:49 44.57567 26.08457 321 ft 6 kts 354°
2026-05-07 17:50 44.57623 26.08449 323 ft 8 kts 354°
2026-05-07 17:50 44.57662 26.08462 323 ft 5 kts 47°
2026-05-07 17:50 44.57667 26.08488 324 ft 0 kts 82°
2026-05-07 17:51 44.57667 26.08490 324 ft 2 kts 82°
2026-05-07 17:51 44.57686 26.08731 321 ft 62 kts 84°
2026-05-07 17:51 44.57756 26.09658 320 ft 127 kts 84°
2026-05-07 17:52 44.57867 26.11100 515 ft 158 kts 85°
2026-05-07 17:52 44.57980 26.12637 1164 ft 160 kts 86°
2026-05-07 17:52 44.58105 26.14231 1721 ft 173 kts 86°
2026-05-07 17:52 44.58244 26.16002 2126 ft 192 kts 86°
2026-05-07 17:53 44.58401 26.17979 2507 ft 216 kts 86°
2026-05-07 17:53 44.58561 26.20178 2992 ft 236 kts 86°
2026-05-07 17:53 44.58713 26.22466 3866 ft 237 kts 86°
2026-05-07 17:53 44.58857 26.24808 4662 ft 244 kts 86°
2026-05-07 17:54 44.58990 26.27180 5439 ft 249 kts 86°
2026-05-07 17:54 44.59145 26.29631 6255 ft 254 kts 81°
2026-05-07 17:54 44.59814 26.31927 7003 ft 259 kts 50°
2026-05-07 17:54 44.61208 26.33545 7582 ft 270 kts 22°
2026-05-07 17:55 44.63081 26.34105 8057 ft 282 kts 354°
2026-05-07 17:55 44.65047 26.33757 8843 ft 287 kts 347°
2026-05-07 17:55 44.67025 26.33261 9719 ft 291 kts 347°
2026-05-07 17:55 44.69040 26.32729 10345 ft 304 kts 347°
2026-05-07 17:56 44.71197 26.32135 10670 ft 325 kts 347°
2026-05-07 17:56 44.73449 26.31499 11309 ft 334 kts 347°
2026-05-07 17:56 44.75743 26.30834 12051 ft 339 kts 347°
2026-05-07 17:56 44.78073 26.30143 12813 ft 345 kts 347°
2026-05-07 17:57 44.80417 26.29354 13534 ft 349 kts 339°
2026-05-07 17:57 44.81875 26.28393 13979 ft 351 kts 326°
2026-05-07 17:57 44.84406 26.25523 14897 ft 354 kts 318°
2026-05-07 17:57 44.86273 26.23249 15610 ft 356 kts 317°
2026-05-07 17:58 44.88146 26.20957 16313 ft 358 kts 317°
2026-05-07 17:58 44.90034 26.18642 17012 ft 361 kts 317°
2026-05-07 17:58 44.91937 26.16310 17713 ft 363 kts 317°
2026-05-07 17:58 44.93848 26.13968 18401 ft 366 kts 317°
2026-05-07 17:59 44.95780 26.11598 18979 ft 369 kts 317°
2026-05-07 17:59 44.97721 26.09213 19571 ft 371 kts 317°
2026-05-07 17:59 44.99676 26.06809 20162 ft 374 kts 317°
2026-05-07 17:59 45.01651 26.04380 20742 ft 377 kts 317°
2026-05-07 18:00 45.03642 26.01926 21315 ft 381 kts 317°
2026-05-07 18:00 45.05619 25.99487 21878 ft 384 kts 317°
2026-05-07 18:00 45.07664 25.96964 22472 ft 386 kts 317°
2026-05-07 18:00 45.09673 25.94490 23039 ft 389 kts 317°
2026-05-07 18:01 45.11723 25.91963 23608 ft 392 kts 317°
2026-05-07 18:01 45.13796 25.89403 24073 ft 395 kts 317°
2026-05-07 18:01 45.15873 25.86835 24532 ft 398 kts 317°
2026-05-07 18:01 45.17966 25.84240 24981 ft 400 kts 317°
2026-05-07 18:02 45.22199 25.78978 25791 ft 407 kts 317°
2026-05-07 18:02 45.24334 25.76322 26251 ft 409 kts 317°
2026-05-07 18:02 45.26476 25.73654 26733 ft 409 kts 316°
2026-05-07 18:03 45.28615 25.70986 27198 ft 410 kts 316°
2026-05-07 18:03 45.30765 25.68303 27612 ft 412 kts 316°
2026-05-07 18:03 45.32894 25.65644 27974 ft 415 kts 316°
2026-05-07 18:03 45.35068 25.62929 28341 ft 417 kts 316°
2026-05-07 18:04 45.37250 25.60199 28752 ft 419 kts 316°
2026-05-07 18:04 45.39449 25.57443 29033 ft 424 kts 316°
2026-05-07 18:04 45.41671 25.54657 29357 ft 427 kts 316°
2026-05-07 18:04 45.43906 25.51854 29691 ft 429 kts 316°
2026-05-07 18:05 45.46158 25.49030 30009 ft 432 kts 316°
2026-05-07 18:05 45.48418 25.46195 30303 ft 434 kts 316°
2026-05-07 18:05 45.50687 25.43343 30591 ft 436 kts 316°
2026-05-07 18:05 45.52962 25.40473 30880 ft 437 kts 315°
2026-05-07 18:06 45.55236 25.37594 31240 ft 436 kts 315°
2026-05-07 18:06 45.57504 25.34723 31579 ft 436 kts 315°
2026-05-07 18:06 45.59780 25.31840 31895 ft 437 kts 314°
2026-05-07 18:06 45.62049 25.28969 32238 ft 436 kts 314°
2026-05-07 18:07 45.64324 25.26090 32591 ft 436 kts 314°
2026-05-07 18:07 45.66595 25.23209 32929 ft 436 kts 314°
2026-05-07 18:07 45.68857 25.20331 33273 ft 435 kts 314°
2026-05-07 18:07 45.71117 25.17452 33615 ft 435 kts 314°
2026-05-07 18:08 45.73375 25.14574 33962 ft 434 kts 314°
2026-05-07 18:08 45.75631 25.11697 34271 ft 434 kts 314°
2026-05-07 18:08 45.77860 25.08854 34556 ft 434 kts 314°
2026-05-07 18:08 45.80114 25.05976 34831 ft 434 kts 314°
2026-05-07 18:09 45.82365 25.03101 35133 ft 433 kts 314°
2026-05-07 18:09 45.84616 25.00226 35404 ft 432 kts 314°
2026-05-07 18:09 45.86860 24.97353 35711 ft 431 kts 314°
2026-05-07 18:09 45.89089 24.94489 36002 ft 430 kts 314°
2026-05-07 18:10 45.91311 24.91625 36262 ft 429 kts 314°
2026-05-07 18:10 45.93534 24.88760 36513 ft 428 kts 314°
2026-05-07 18:10 45.95753 24.85904 36779 ft 428 kts 314°
2026-05-07 18:10 45.97942 24.83080 37008 ft 428 kts 314°
2026-05-07 18:11 46.00180 24.80191 37240 ft 427 kts 314°
2026-05-07 18:11 46.01649 24.78292 37386 ft 427 kts 314°
2026-05-07 18:11 46.04570 24.74512 37697 ft 427 kts 314°
2026-05-07 18:11 46.06780 24.71654 37929 ft 426 kts 314°
2026-05-07 18:12 46.08980 24.68804 38016 ft 425 kts 314°
2026-05-07 18:12 46.13368 24.63110 38008 ft 424 kts 314°
2026-05-07 18:13 46.17741 24.57409 38012 ft 424 kts 314°
2026-05-07 18:13 46.22122 24.51684 38010 ft 425 kts 314°
2026-05-07 18:14 46.26508 24.45955 38008 ft 425 kts 314°
2026-05-07 18:14 46.30152 24.41184 38013 ft 425 kts 314°
2026-05-07 18:15 46.34523 24.35438 38015 ft 425 kts 314°
2026-05-07 18:15 46.38899 24.29676 38019 ft 425 kts 314°
2026-05-07 18:16 46.43267 24.23914 38023 ft 425 kts 314°
2026-05-07 18:16 46.47634 24.18146 38023 ft 425 kts 314°
2026-05-07 18:17 46.52001 24.12366 38023 ft 424 kts 314°
2026-05-07 18:17 46.56330 24.06618 38034 ft 425 kts 313°
2026-05-07 18:18 46.60686 24.00817 38027 ft 425 kts 313°
2026-05-07 18:18 46.65045 23.94999 38026 ft 425 kts 313°
2026-05-07 18:19 46.69404 23.89167 38038 ft 425 kts 313°
2026-05-07 18:19 46.73759 23.83331 38042 ft 425 kts 313°
2026-05-07 18:20 46.78113 23.77490 38062 ft 425 kts 313°
2026-05-07 18:20 46.82463 23.71625 38050 ft 425 kts 313°
2026-05-07 18:21 46.86807 23.65755 38041 ft 426 kts 313°
2026-05-07 18:21 46.91158 23.59878 38038 ft 426 kts 313°
2026-05-07 18:22 46.95480 23.54024 38062 ft 426 kts 313°
2026-05-07 18:22 46.99825 23.48122 38048 ft 426 kts 313°
2026-05-07 18:23 47.04158 23.42216 38044 ft 425 kts 312°
2026-05-07 18:23 47.08491 23.36300 38042 ft 425 kts 312°
2026-05-07 18:24 47.12823 23.30376 38042 ft 425 kts 312°
2026-05-07 18:24 47.17144 23.24445 38056 ft 425 kts 312°
2026-05-07 18:25 47.21465 23.18502 38043 ft 425 kts 312°
2026-05-07 18:25 47.25878 23.12683 38037 ft 429 kts 319°
2026-05-07 18:26 47.30703 23.07578 38032 ft 430 kts 319°
2026-05-07 18:26 47.35562 23.02421 38030 ft 430 kts 319°
2026-05-07 18:27 47.40412 22.97249 38047 ft 430 kts 319°
2026-05-07 18:27 47.45269 22.92055 38036 ft 431 kts 319°
2026-05-07 18:28 47.50131 22.86853 38026 ft 431 kts 319°
2026-05-07 18:28 47.54992 22.81648 38032 ft 431 kts 319°
2026-05-07 18:29 47.59858 22.76424 38027 ft 432 kts 319°
2026-05-07 18:29 47.64711 22.71188 38043 ft 432 kts 319°
2026-05-07 18:30 47.69577 22.65934 38044 ft 432 kts 319°
2026-05-07 18:30 47.74436 22.60681 38030 ft 433 kts 319°
2026-05-07 18:31 47.79265 22.55436 38025 ft 433 kts 319°
2026-05-07 18:31 47.84133 22.50133 38032 ft 433 kts 319°
2026-05-07 18:32 47.89000 22.44831 38018 ft 434 kts 319°
2026-05-07 18:32 47.93875 22.39513 38008 ft 434 kts 319°
2026-05-07 18:33 47.98747 22.34187 38016 ft 434 kts 319°
2026-05-07 18:33 48.03614 22.28831 38003 ft 435 kts 319°
2026-05-07 18:34 48.08454 22.23493 38023 ft 435 kts 319°
2026-05-07 18:34 48.13327 22.18107 38001 ft 436 kts 319°
2026-05-07 18:35 48.18217 22.12701 37996 ft 437 kts 319°
2026-05-07 18:35 48.23113 22.07282 37989 ft 437 kts 319°
2026-05-07 18:36 48.28005 22.01843 38000 ft 437 kts 318°
2026-05-07 18:36 48.32890 21.96394 38011 ft 438 kts 318°
2026-05-07 18:37 48.37897 21.91137 37989 ft 442 kts 324°
2026-05-07 18:37 48.43114 21.86341 37985 ft 442 kts 323°
2026-05-07 18:38 48.48360 21.81499 37988 ft 442 kts 323°
2026-05-07 18:38 48.53612 21.76647 37983 ft 443 kts 323°
2026-05-07 18:39 48.58862 21.71778 37990 ft 443 kts 323°
2026-05-07 18:39 48.64119 21.66876 37317 ft 448 kts 323°
2026-05-07 18:39 48.66766 21.64400 36798 ft 443 kts 323°
2026-05-07 18:40 48.69380 21.61960 36279 ft 440 kts 323°
2026-05-07 18:40 48.71973 21.59541 35775 ft 436 kts 323°
2026-05-07 18:40 48.74543 21.57137 35250 ft 433 kts 323°
2026-05-07 18:40 48.77106 21.54736 34743 ft 431 kts 323°
2026-05-07 18:41 48.79654 21.52346 34215 ft 430 kts 323°
2026-05-07 18:41 48.82200 21.49957 33649 ft 429 kts 323°
2026-05-07 18:41 48.84694 21.47615 33178 ft 426 kts 323°
2026-05-07 18:41 48.87208 21.45249 32620 ft 424 kts 322°
2026-05-07 18:42 48.89711 21.42889 32108 ft 421 kts 322°
2026-05-07 18:42 48.92190 21.40552 31606 ft 419 kts 322°
2026-05-07 18:42 48.94666 21.38216 31105 ft 417 kts 323°
2026-05-07 18:42 48.97123 21.35896 30618 ft 414 kts 323°
2026-05-07 18:43 48.99563 21.33586 30139 ft 412 kts 323°
2026-05-07 18:43 49.01991 21.31283 29621 ft 409 kts 323°
2026-05-07 18:43 49.04393 21.29001 29174 ft 405 kts 323°
2026-05-07 18:43 49.06774 21.26740 28719 ft 401 kts 323°
2026-05-07 18:44 49.09124 21.24503 28288 ft 396 kts 323°
2026-05-07 18:44 49.11454 21.22284 27845 ft 392 kts 323°
2026-05-07 18:44 49.13764 21.20085 27410 ft 390 kts 322°
2026-05-07 18:44 49.16056 21.17900 26969 ft 387 kts 323°
2026-05-07 18:45 49.18327 21.15731 26518 ft 384 kts 323°
2026-05-07 18:45 49.20584 21.13569 26060 ft 382 kts 323°
2026-05-07 18:45 49.22830 21.11413 25600 ft 381 kts 323°
2026-05-07 18:45 49.25044 21.09287 25129 ft 380 kts 323°
2026-05-07 18:46 49.27277 21.07145 24649 ft 379 kts 323°
2026-05-07 18:46 49.29505 21.05008 24158 ft 378 kts 323°
2026-05-07 18:46 49.31730 21.02869 23685 ft 377 kts 323°
2026-05-07 18:46 49.33796 21.00462 23190 ft 370 kts 312°
2026-05-07 18:47 49.35525 20.97609 22750 ft 362 kts 305°
2026-05-07 18:47 49.37137 20.94661 22324 ft 358 kts 305°
2026-05-07 18:47 49.38736 20.91749 21907 ft 356 kts 305°
2026-05-07 18:47 49.40332 20.88864 21525 ft 353 kts 308°
2026-05-07 18:48 49.42189 20.86463 21429 ft 346 kts 320°
2026-05-07 18:48 49.44145 20.84330 21058 ft 344 kts 320°
2026-05-07 18:48 49.46094 20.82199 20632 ft 343 kts 320°
2026-05-07 18:48 49.48040 20.80069 20202 ft 343 kts 320°
2026-05-07 18:49 49.49993 20.77935 19768 ft 343 kts 320°
2026-05-07 18:49 49.51937 20.75810 19342 ft 342 kts 320°
2026-05-07 18:49 49.53877 20.73686 18924 ft 342 kts 320°
2026-05-07 18:49 49.55815 20.71565 18496 ft 342 kts 320°
2026-05-07 18:50 49.57749 20.69448 18056 ft 342 kts 320°
2026-05-07 18:50 49.59690 20.67322 17617 ft 341 kts 320°
2026-05-07 18:50 49.61616 20.65211 17220 ft 339 kts 320°
2026-05-07 18:50 49.63512 20.63125 16801 ft 338 kts 321°
2026-05-07 18:51 49.65447 20.60992 16382 ft 337 kts 321°
2026-05-07 18:51 49.67353 20.58890 15979 ft 336 kts 321°
2026-05-07 18:51 49.69231 20.56820 15585 ft 336 kts 321°
2026-05-07 18:51 49.71129 20.54725 15183 ft 335 kts 321°
2026-05-07 18:52 49.73023 20.52634 14828 ft 333 kts 321°
2026-05-07 18:52 49.74913 20.50544 14403 ft 335 kts 321°
2026-05-07 18:52 49.76808 20.48445 13996 ft 335 kts 321°
2026-05-07 18:52 49.78703 20.46345 13560 ft 334 kts 321°
2026-05-07 18:53 49.80581 20.44264 13272 ft 328 kts 321°
2026-05-07 18:53 49.82427 20.42216 12757 ft 325 kts 321°
2026-05-07 18:53 49.84254 20.40187 12350 ft 321 kts 321°
2026-05-07 18:53 49.86049 20.38186 11900 ft 317 kts 321°
2026-05-07 18:54 49.87830 20.36201 11389 ft 313 kts 322°
2026-05-07 18:54 49.89597 20.34238 11058 ft 310 kts 322°
2026-05-07 18:54 49.91309 20.32339 10824 ft 303 kts 322°
2026-05-07 18:54 49.93023 20.30437 10537 ft 298 kts 322°
2026-05-07 18:55 49.94720 20.28544 9663 ft 305 kts 322°
2026-05-07 18:55 49.96449 20.26607 8972 ft 305 kts 322°
2026-05-07 18:55 49.98157 20.24690 8368 ft 302 kts 322°
2026-05-07 18:55 49.99847 20.22791 7764 ft 298 kts 322°
2026-05-07 18:56 50.01516 20.20919 7156 ft 293 kts 322°
2026-05-07 18:56 50.03158 20.19080 6430 ft 290 kts 322°
2026-05-07 18:56 50.04782 20.17259 5773 ft 286 kts 322°
2026-05-07 18:56 50.06395 20.15443 5271 ft 285 kts 322°
2026-05-07 18:57 50.07991 20.13642 5000 ft 283 kts 322°
2026-05-07 18:57 50.09582 20.11849 4870 ft 280 kts 322°
2026-05-07 18:57 50.11070 20.09992 4739 ft 266 kts 308°
2026-05-07 18:57 50.11751 20.07555 4609 ft 235 kts 271°
2026-05-07 18:58 50.11582 20.05183 4481 ft 214 kts 259°
2026-05-07 18:58 50.11280 20.03005 4352 ft 196 kts 258°
2026-05-07 18:58 50.10976 20.01007 4216 ft 186 kts 258°
2026-05-07 18:58 50.10683 19.99064 3932 ft 183 kts 258°
2026-05-07 18:59 50.10398 19.97133 3633 ft 183 kts 258°
2026-05-07 18:59 50.10118 19.95198 3329 ft 183 kts 259°
2026-05-07 18:59 50.09840 19.93257 3013 ft 184 kts 259°
2026-05-07 18:59 50.09567 19.91335 2699 ft 179 kts 259°
2026-05-07 19:00 50.09303 19.89486 2413 ft 167 kts 259°
2026-05-07 19:00 50.09064 19.87792 2114 ft 154 kts 259°
2026-05-07 19:00 50.08844 19.86219 1857 ft 144 kts 257°
2026-05-07 19:00 50.08636 19.84715 1579 ft 140 kts 257°
2026-05-07 19:01 50.08438 19.83242 1300 ft 137 kts 256°
2026-05-07 19:01 50.08236 19.81817 1060 ft 132 kts 256°
2026-05-07 19:01 50.08043 19.80433 892 ft 133 kts 257°
2026-05-07 19:01 50.07854 19.79066 801 ft 115 kts 258°
2026-05-07 19:02 50.07728 19.78149 799 ft 44 kts 257°
2026-05-07 19:02 50.07671 19.77746 798 ft 38 kts 258°
2026-05-07 19:02 50.07633 19.77474 799 ft 39 kts 258°
2026-05-07 19:02 50.07569 19.77014 802 ft 32 kts 258°
2026-05-07 19:03 50.07507 19.76845 802 ft 22 kts 197°
2026-05-07 19:03 50.07356 19.76886 800 ft 15 kts 167°
2026-05-07 19:03 50.07306 19.76979 800 ft 10 kts 88°
2026-05-07 19:03 50.07318 19.77046 800 ft 9 kts 76°
2026-05-07 19:04 50.07333 19.77144 800 ft 12 kts 77°
2026-05-07 19:04 50.07360 19.77339 800 ft 24 kts 77°
2026-05-07 19:04 50.07397 19.77607 800 ft 26 kts 78°
2026-05-07 19:04 50.07436 19.77890 800 ft 28 kts 78°
2026-05-07 19:05 50.07479 19.78192 800 ft 29 kts 78°
2026-05-07 19:05 50.07521 19.78498 800 ft 27 kts 78°
2026-05-07 19:05 50.07558 19.78766 800 ft 26 kts 79°
2026-05-07 19:05 50.07592 19.78999 800 ft 21 kts 77°
2026-05-07 19:06 50.07623 19.79226 800 ft 22 kts 78°
2026-05-07 19:06 50.07686 19.79681 800 ft 15 kts 78°
2026-05-07 19:06 50.07706 19.79833 800 ft 12 kts 85°
2026-05-07 19:07 50.07652 19.79886 800 ft 11 kts 168°
2026-05-07 19:07 50.07555 19.79918 800 ft 12 kts 168°
2026-05-07 19:07 50.07513 19.80005 800 ft 11 kts 77°
2026-05-07 19:07 50.07492 19.80074 800 ft 6 kts 160°
2026-05-07 19:08 50.07471 19.80080 800 ft 1 kts 167°
2026-05-07 19:08 50.07468 19.80081 800 ft 0 kts 167°